This is the latest recevied weather packets stored in our database for station/object KA7KDX-4. If no packets are shown the sender has not sent any weather packets the latest 10 day(s).
| Time | Temp. | Humidity | Pressure | Rain* | Wind** | Luminosity | Snow |
|---|---|---|---|---|---|---|---|
| 1777969806 | 14.44° C | 53% | 1004.5 hPa | 0 mm | - | - | - |
| 1777969505 | 14.44° C | 54% | 1004.5 hPa | 0 mm | - | - | - |
| 1777969205 | 14.44° C | 55% | 1004.5 hPa | 0 mm | - | - | - |
| 1777968905 | 14.44° C | 54% | 1004.4 hPa | 0 mm | - | - | - |
| 1777968605 | 13.89° C | 55% | 1004.5 hPa | 0 mm | - | - | - |
| 1777968306 | 13.89° C | 57% | 1004.6 hPa | 0 mm | - | - | - |
| 1777968006 | 13.89° C | 57% | 1004.8 hPa | 0 mm | - | - | - |
| 1777967706 | 13.89° C | 58% | 1004.8 hPa | 0 mm | - | - | - |
| 1777967406 | 13.89° C | 59% | 1004.7 hPa | 0 mm | - | - | - |
| 1777967106 | 13.89° C | 55% | 1004.8 hPa | 0 mm | - | - | - |
| 1777966805 | 13.89° C | 56% | 1004.6 hPa | 0 mm | - | - | - |
| 1777966505 | 14.44° C | 55% | 1004.6 hPa | 0 mm | - | - | - |
| 1777966205 | 14.44° C | 53% | 1004.2 hPa | 0 mm | - | - | - |
| 1777965905 | 14.44° C | 53% | 1004.4 hPa | 0 mm | - | - | - |
| 1777965605 | 14.44° C | 53% | 1004.4 hPa | 0 mm | - | - | - |
| 1777965306 | 14.44° C | 52% | 1004.2 hPa | 0 mm | - | - | - |
| 1777965006 | 14.44° C | 51% | 1004.3 hPa | 0 mm | - | - | - |
| 1777964706 | 14.44° C | 53% | 1004.3 hPa | 0 mm | - | - | - |
| 1777964406 | 14.44° C | 52% | 1004.2 hPa | 0 mm | - | - | - |
| 1777964106 | 14.44° C | 54% | 1004.3 hPa | 0 mm | - | - | - |
| 1777963805 | 13.89° C | 54% | 1004.3 hPa | 0 mm | - | - | - |
| 1777963505 | 13.89° C | 54% | 1004.3 hPa | 0 mm | - | - | - |
| 1777963205 | 14.44° C | 54% | 1004.2 hPa | 0.25 mm | - | - | - |
| 1777962905 | 14.44° C | 54% | 1004.1 hPa | 0.25 mm | - | - | - |
| 1777962606 | 14.44° C | 53% | 1004.1 hPa | 0 mm | - | - | - |
* Rain latest hour (hover to see other rain measurements)
** Current wind speed in m/s (hover to see current wind gust speed)